Back to catalog

DELTA 1 R/B

AliveSSO
NORAD 10704·ROCKET BODY·🇺🇸 United States

Launched Mar 5, 1978 from Vandenberg Space Force Base

Loading…

Next Passes (next 24 hours)

TLE

FreshSource: Space-Track

Epoch: Sep 14, 2026, 12:28 UTC

1 10704U 78026C   26257.52003489  .00000007  00000-0  38911-4 0  9991
2 10704  98.7858 103.8451 0073437  51.8334 308.9411 13.88273891309973

Track DELTA 1 R/B in real time with AllMySat

Download on the App Store